�������l�o���
Date,Time,MP-1(��Sv/h),MP-2(��Sv/h),MP-3(��Sv/h),MP-4(��Sv/h),MP-5(��Sv/h),MP-6(��Sv/h),MP-7(��Sv/h),MP-8(��Sv/h),����,����(m/s),���J
2020/08/02,00:00,0.653,0.933,0.585,1.121,0.801,0.391,0.666,0.626,���k��,1.5,��
2020/08/02,00:10,0.652,0.934,0.587,1.120,0.801,0.390,0.665,0.624,���k��,1.9,��
2020/08/02,00:20,0.652,0.934,0.587,1.122,0.802,0.390,0.664,0.625,���k��,1.4,��
2020/08/02,00:30,0.652,0.934,0.586,1.122,0.802,0.389,0.664,0.626,���k��,1.5,��
2020/08/02,00:40,0.652,0.935,0.586,1.122,0.801,0.391,0.666,0.626,���k��,2.3,��
2020/08/02,00:50,0.653,0.932,0.586,1.123,0.802,0.390,0.664,0.626,���k��,2.0,��
2020/08/02,01:00,0.652,0.935,0.587,1.119,0.800,0.390,0.665,0.625,�k��,1.9,��
2020/08/02,01:10,0.652,0.933,0.586,1.122,0.801,0.389,0.665,0.626,�k��,2.0,��
2020/08/02,01:20,0.653,0.936,0.585,1.123,0.800,0.390,0.667,0.628,�k��,2.0,��
2020/08/02,01:30,0.651,0.933,0.586,1.122,0.800,0.391,0.665,0.627,�k��,2.3,��
2020/08/02,01:40,0.651,0.933,0.587,1.124,0.799,0.391,0.665,0.626,�k��,2.0,��
2020/08/02,01:50,0.653,0.932,0.585,1.120,0.801,0.391,0.666,0.625,�k��,1.5,��
2020/08/02,02:00,0.651,0.933,0.587,1.124,0.802,0.390,0.665,0.626,�k,0.8,��
2020/08/02,02:10,0.650,0.934,0.587,1.123,0.802,0.390,0.664,0.627,�k,0.8,��
2020/08/02,02:20,0.653,0.934,0.586,1.121,0.801,0.390,0.665,0.627,�k�k��,0.6,��
2020/08/02,02:30,0.651,0.932,0.587,1.122,0.802,0.392,0.665,0.625,�k�k��,0.9,��
2020/08/02,02:40,0.653,0.934,0.587,1.123,0.801,0.389,0.664,0.626,�k�k��,1.9,��
2020/08/02,02:50,0.653,0.936,0.588,1.123,0.801,0.390,0.667,0.626,�k��,2.0,��
2020/08/02,03:00,0.654,0.933,0.587,1.124,0.800,0.389,0.665,0.627,�k�k��,1.7,��
2020/08/02,03:10,0.652,0.936,0.585,1.122,0.803,0.390,0.665,0.626,�k��,1.7,��
2020/08/02,03:20,0.652,0.934,0.587,1.123,0.799,0.392,0.666,0.625,�k�k��,1.2,��
2020/08/02,03:30,0.651,0.933,0.586,1.125,0.803,0.390,0.664,0.627,�k,1.2,��
2020/08/02,03:40,0.651,0.934,0.587,1.124,0.802,0.391,0.664,0.627,�k�k��,1.4,��
2020/08/02,03:50,0.653,0.933,0.587,1.124,0.802,0.391,0.665,0.626,�k,1.4,��
2020/08/02,04:00,0.654,0.934,0.588,1.121,0.802,0.390,0.667,0.626,�k,1.1,��
2020/08/02,04:10,0.652,0.934,0.587,1.121,0.800,0.390,0.666,0.627,�k,1.9,��
2020/08/02,04:20,0.654,0.933,0.587,1.125,0.802,0.390,0.666,0.627,�k,1.7,��
2020/08/02,04:30,0.653,0.935,0.587,1.125,0.802,0.391,0.667,0.627,�k,1.5,��
2020/08/02,04:40,0.652,0.933,0.587,1.124,0.802,0.391,0.665,0.627,�k��,1.4,��
2020/08/02,04:50,0.654,0.934,0.587,1.123,0.799,0.390,0.664,0.627,�k��,0.9,��
2020/08/02,05:00,0.653,0.934,0.588,1.122,0.802,0.392,0.667,0.626,�k�k��,1.5,��
2020/08/02,05:10,0.653,0.934,0.587,1.122,0.801,0.388,0.664,0.627,�k,0.8,��
2020/08/02,05:20,0.652,0.933,0.586,1.124,0.803,0.391,0.665,0.625,�k�k��,0.9,��
2020/08/02,05:30,0.651,0.934,0.587,1.125,0.803,0.391,0.667,0.625,�k�k��,0.9,��
2020/08/02,05:40,0.653,0.934,0.588,1.122,0.800,0.389,0.665,0.626,�k,0.9,��
2020/08/02,05:50,0.653,0.934,0.587,1.124,0.802,0.391,0.667,0.626,�k�k��,1.2,��
2020/08/02,06:00,0.654,0.934,0.587,1.123,0.801,0.390,0.665,0.626,�k�k��,1.5,��
2020/08/02,06:10,0.653,0.935,0.586,1.124,0.802,0.391,0.665,0.625,�k,1.2,��
2020/08/02,06:20,0.652,0.932,0.587,1.126,0.802,0.391,0.665,0.625,�k�k��,1.2,��
2020/08/02,06:30,0.652,0.934,0.586,1.122,0.803,0.392,0.667,0.626,�k�k��,0.9,��
2020/08/02,06:40,0.653,0.932,0.587,1.123,0.801,0.390,0.668,0.627,-,CALM,��
2020/08/02,06:50,0.652,0.932,0.586,1.122,0.800,0.391,0.666,0.627,�k��,1.4,��
2020/08/02,07:00,0.654,0.931,0.584,1.124,0.802,0.391,0.665,0.628,-,CALM,��
2020/08/02,07:10,0.655,0.929,0.586,1.122,0.798,0.390,0.665,0.627,�k��,1.5,��
2020/08/02,07:20,0.654,0.932,0.586,1.124,0.801,0.390,0.665,0.628,�k�k��,1.2,��
2020/08/02,07:30,0.654,0.933,0.587,1.123,0.800,0.389,0.666,0.628,�k��,1.5,��
2020/08/02,07:40,0.654,0.933,0.586,1.123,0.801,0.391,0.666,0.625,���k��,1.7,��
2020/08/02,07:50,0.652,0.933,0.584,1.122,0.801,0.391,0.666,0.627,���k��,2.3,��
2020/08/02,08:00,0.650,0.933,0.584,1.122,0.800,0.389,0.665,0.625,�k��,1.9,��
2020/08/02,08:10,0.651,0.932,0.584,1.122,0.799,0.388,0.664,0.626,���k��,1.5,��
2020/08/02,08:20,0.652,0.934,0.586,1.122,0.800,0.390,0.664,0.623,���k��,1.5,��
2020/08/02,08:30,0.652,0.932,0.585,1.123,0.801,0.389,0.665,0.625,���k��,1.5,��
2020/08/02,08:40,0.653,0.931,0.583,1.120,0.800,0.390,0.666,0.624,���k��,2.3,��
2020/08/02,08:50,0.653,0.935,0.585,1.121,0.800,0.390,0.666,0.624,��,2.0,��
2020/08/02,09:00,0.654,0.936,0.584,1.122,0.800,0.391,0.666,0.624,��,2.5,��
2020/08/02,09:10,0.651,0.934,0.584,1.122,0.802,0.391,0.666,0.623,���k��,2.9,��
2020/08/02,09:20,0.653,0.935,0.584,1.122,0.801,0.392,0.665,0.624,���k��,2.5,��
2020/08/02,09:30,0.652,0.934,0.584,1.122,0.802,0.390,0.666,0.625,���k��,2.3,��
2020/08/02,09:40,0.652,0.936,0.587,1.122,0.804,0.392,0.664,0.624,��,2.9,��
2020/08/02,09:50,0.654,0.935,0.586,1.122,0.801,0.390,0.663,0.625,��,3.0,��
2020/08/02,10:00,0.653,0.938,0.585,1.124,0.803,0.392,0.663,0.624,��,3.4,��
2020/08/02,10:10,0.653,0.938,0.587,1.122,0.801,0.391,0.664,0.626,��,3.5,��
2020/08/02,10:20,0.653,0.936,0.585,1.124,0.803,0.390,0.664,0.625,���쓌,3.9,��
2020/08/02,10:30,0.653,0.937,0.586,1.124,0.803,0.391,0.665,0.624,���쓌,4.2,��
2020/08/02,10:40,0.654,0.938,0.587,1.124,0.803,0.391,0.666,0.624,���쓌,2.6,��
2020/08/02,10:50,0.654,0.939,0.586,1.124,0.803,0.391,0.666,0.625,�쓌,3.1,��
2020/08/02,11:00,0.652,0.940,0.587,1.124,0.805,0.391,0.664,0.624,���쓌,2.6,��
2020/08/02,11:10,0.656,0.939,0.585,1.124,0.805,0.391,0.666,0.625,�쓌,2.9,��
2020/08/02,11:20,0.656,0.940,0.588,1.122,0.805,0.391,0.664,0.625,���쓌,2.8,��
2020/08/02,11:30,0.655,0.939,0.586,1.124,0.806,0.392,0.665,0.627,��,2.6,��
2020/08/02,11:40,0.655,0.939,0.586,1.123,0.804,0.392,0.666,0.625,���쓌,2.6,��
2020/08/02,11:50,0.654,0.941,0.588,1.121,0.805,0.391,0.666,0.625,���쓌,3.1,��
2020/08/02,12:00,0.654,0.943,0.587,1.121,0.805,0.392,0.668,0.625,���쓌,3.3,��
2020/08/02,12:10,0.655,0.940,0.587,1.122,0.806,0.391,0.667,0.625,���쓌,3.7,��
2020/08/02,12:20,0.655,0.943,0.588,1.121,0.806,0.390,0.666,0.627,�쓌,3.0,��
2020/08/02,12:30,0.655,0.942,0.587,1.124,0.809,0.390,0.666,0.626,���쓌,2.6,��
2020/08/02,12:40,0.656,0.942,0.585,1.123,0.806,0.392,0.667,0.626,�쓌,2.3,��
2020/08/02,12:50,0.655,0.944,0.588,1.126,0.808,0.392,0.667,0.625,���쓌,3.0,��
2020/08/02,13:00,0.656,0.946,0.587,1.124,0.808,0.392,0.667,0.626,�쓌,2.0,��
2020/08/02,13:10,0.656,0.945,0.588,1.124,0.809,0.392,0.667,0.625,��,2.6,��
2020/08/02,13:20,0.656,0.945,0.588,1.125,0.807,0.393,0.667,0.625,���쓌,2.6,��
2020/08/02,13:30,0.656,0.945,0.588,1.123,0.809,0.393,0.667,0.627,���쓌,2.8,��
2020/08/02,13:40,0.653,0.945,0.588,1.125,0.808,0.391,0.668,0.627,���쓌,3.1,��
2020/08/02,13:50,0.656,0.949,0.588,1.123,0.808,0.392,0.667,0.626,���쓌,2.8,��
2020/08/02,14:00,0.655,0.947,0.588,1.125,0.809,0.392,0.668,0.626,���쓌,2.5,��
2020/08/02,14:10,0.658,0.947,0.589,1.122,0.811,0.392,0.667,0.627,���쓌,2.5,��
2020/08/02,14:20,0.656,0.946,0.590,1.126,0.811,0.390,0.668,0.628,�쓌,2.5,��
2020/08/02,14:30,0.658,0.946,0.588,1.123,0.809,0.392,0.668,0.627,��,2.3,��
2020/08/02,14:40,0.655,0.947,0.589,1.126,0.810,0.393,0.668,0.627,��,1.5,��
2020/08/02,14:50,0.656,0.947,0.588,1.125,0.810,0.391,0.669,0.627,���쓌,2.3,��
2020/08/02,15:00,0.656,0.948,0.590,1.127,0.810,0.393,0.667,0.626,��,2.3,��
2020/08/02,15:10,0.655,0.948,0.589,1.127,0.809,0.390,0.668,0.625,���k��,2.3,��
2020/08/02,15:20,0.657,0.948,0.590,1.127,0.811,0.391,0.668,0.627,���쓌,2.8,��
2020/08/02,15:30,0.657,0.945,0.587,1.126,0.810,0.390,0.667,0.627,��,2.6,��
2020/08/02,15:40,0.658,0.948,0.588,1.125,0.810,0.392,0.666,0.625,��,3.3,��
2020/08/02,15:50,0.657,0.947,0.589,1.129,0.809,0.392,0.668,0.626,���쓌,3.1,��
2020/08/02,16:00,0.656,0.947,0.589,1.128,0.811,0.391,0.667,0.626,��,2.8,��
2020/08/02,16:10,0.656,0.946,0.589,1.128,0.808,0.390,0.666,0.627,��,2.3,��
2020/08/02,16:20,0.655,0.946,0.588,1.127,0.808,0.393,0.667,0.627,��,2.3,��
2020/08/02,16:30,0.655,0.949,0.589,1.125,0.806,0.391,0.668,0.626,��,2.6,��
2020/08/02,16:40,0.658,0.948,0.589,1.129,0.811,0.392,0.669,0.626,���쓌,2.6,��
2020/08/02,16:50,0.655,0.947,0.588,1.129,0.810,0.392,0.667,0.625,���쓌,2.8,��
2020/08/02,17:00,0.656,0.948,0.588,1.129,0.810,0.392,0.668,0.626,�쓌,2.6,��
2020/08/02,17:10,0.657,0.947,0.588,1.127,0.811,0.391,0.667,0.625,�쓌,1.9,��
2020/08/02,17:20,0.656,0.946,0.587,1.129,0.810,0.391,0.667,0.626,�쓌,2.3,��
2020/08/02,17:30,0.657,0.947,0.589,1.129,0.809,0.393,0.666,0.626,���쓌,2.3,��
2020/08/02,17:40,0.656,0.945,0.590,1.127,0.809,0.392,0.667,0.627,���쓌,1.5,��
2020/08/02,17:50,0.657,0.946,0.589,1.129,0.810,0.392,0.667,0.627,�쓌,2.3,��
2020/08/02,18:00,0.657,0.945,0.587,1.130,0.810,0.394,0.667,0.628,�쓌,2.3,��
2020/08/02,18:10,0.657,0.949,0.587,1.130,0.809,0.393,0.667,0.627,���쓌,2.2,��
2020/08/02,18:20,0.657,0.946,0.589,1.127,0.811,0.393,0.667,0.628,�쓌,2.0,��
2020/08/02,18:30,0.659,0.948,0.590,1.131,0.811,0.394,0.667,0.628,���쓌,2.3,��
2020/08/02,18:40,0.657,0.951,0.591,1.129,0.810,0.393,0.667,0.628,�쓌,2.6,��
2020/08/02,18:50,0.658,0.951,0.591,1.131,0.811,0.393,0.667,0.628,��쓌,2.0,��
2020/08/02,19:00,0.658,0.947,0.592,1.127,0.810,0.392,0.666,0.628,��쓌,2.3,��
2020/08/02,19:10,0.659,0.949,0.591,1.129,0.811,0.392,0.668,0.629,��쓌,1.7,��
2020/08/02,19:20,0.659,0.947,0.593,1.129,0.811,0.394,0.667,0.628,��,2.0,��
2020/08/02,19:30,0.658,0.948,0.590,1.132,0.811,0.393,0.668,0.627,��쓌,1.4,��
2020/08/02,19:40,0.658,0.949,0.591,1.132,0.812,0.393,0.668,0.629,��,1.1,��
2020/08/02,19:50,0.659,0.949,0.592,1.133,0.811,0.393,0.667,0.628,��쓌,1.2,��
2020/08/02,20:00,0.658,0.949,0.592,1.131,0.812,0.394,0.668,0.628,��,1.4,��
2020/08/02,20:10,0.658,0.949,0.591,1.132,0.811,0.391,0.667,0.627,��쐼,1.2,��
2020/08/02,20:20,0.659,0.949,0.593,1.133,0.812,0.393,0.668,0.628,��쓌,1.1,��
2020/08/02,20:30,0.660,0.949,0.590,1.133,0.812,0.394,0.669,0.627,��쓌,2.0,��
2020/08/02,20:40,0.658,0.948,0.591,1.131,0.813,0.392,0.666,0.626,��쐼,1.4,��
2020/08/02,20:50,0.658,0.947,0.591,1.132,0.812,0.394,0.668,0.627,��쓌,0.9,��
2020/08/02,21:00,0.659,0.948,0.590,1.132,0.813,0.393,0.668,0.627,��쓌,1.7,��
2020/08/02,21:10,0.657,0.950,0.590,1.134,0.812,0.394,0.668,0.627,��쓌,1.2,��
2020/08/02,21:20,0.660,0.949,0.591,1.134,0.812,0.394,0.668,0.627,��쐼,1.2,��
2020/08/02,21:30,0.657,0.950,0.590,1.134,0.812,0.394,0.669,0.628,��쐼,1.2,��
2020/08/02,21:40,0.660,0.948,0.593,1.131,0.813,0.394,0.669,0.627,��쐼,0.6,��
2020/08/02,21:50,0.659,0.950,0.590,1.133,0.811,0.392,0.668,0.628,��,1.5,��
2020/08/02,22:00,0.659,0.947,0.591,1.132,0.812,0.394,0.671,0.628,��,1.5,��
2020/08/02,22:10,0.660,0.949,0.591,1.131,0.810,0.394,0.667,0.627,��,1.4,��
2020/08/02,22:20,0.658,0.947,0.592,1.133,0.812,0.393,0.668,0.628,��,2.6,��
2020/08/02,22:30,0.659,0.950,0.591,1.133,0.813,0.395,0.668,0.627,��쐼,2.8,��
2020/08/02,22:40,0.660,0.948,0.593,1.134,0.812,0.393,0.670,0.629,��쐼,2.6,��
2020/08/02,22:50,0.660,0.948,0.591,1.134,0.812,0.394,0.670,0.629,��쐼,2.5,��
2020/08/02,23:00,0.658,0.947,0.591,1.135,0.813,0.392,0.668,0.628,��쐼,3.0,��
2020/08/02,23:10,0.661,0.948,0.592,1.134,0.814,0.395,0.667,0.628,-,CALM,��
2020/08/02,23:20,0.660,0.949,0.592,1.134,0.813,0.394,0.669,0.628,��쓌,1.9,��
2020/08/02,23:30,0.660,0.947,0.591,1.131,0.813,0.393,0.668,0.627,��,2.0,��
2020/08/02,23:40,0.660,0.947,0.592,1.135,0.811,0.394,0.668,0.630,��쐼,1.7,��
2020/08/02,23:50,0.662,0.947,0.591,1.134,0.812,0.394,0.670,0.629,��,1.7,��
